Regional Weather Roundup
Issued by NWS State College, PA

Home | Current Version | Previous Version | Text Only | Print | Product List | Glossary On
Versions: 1 2 3 4 5 6 7 8 9 10 11 12 13 14 15 16 17 18 19 20 21 22 23 24 25 26 27 28 29 30 31 32 33 34 35 36 37 38 39 40 41 42 43 44 45 46 47 48 49 50
000
ASUS41 KCTP 252003
RWRCTP

REGIONAL WEATHER ROUNDUP
NATIONAL WEATHER SERVICE STATE COLLEGE PA
400 PM EDT FRI JUL 25 2014

Note: "fair" indicates few or no clouds below 12,000 feet with no
significant weather and/or obstructions to visibility.

* = STATION THAT DOES NOT REPORT PRECIPITATION /E.G. RAIN...SNOW...ETC/
    THUNDER OR FOG.

PAZ002>004-007>009-013>016-020>023-029>032-252100-
WESTERN PENNSYLVANIA

CITY           SKY/WX    TMP DP  RH WIND       PRES   REMARKS
ERIE           MOSUNNY   73  51  46 W9        30.04F
MEADVILLE      MOSUNNY   72  50  45 W3        30.05F
FRANKLIN*      SUNNY     73  52  46 NW3       30.06F
NEW CASTLE       N/A     76  50  40 CALM      30.04F
BEAVER COUNTY  SUNNY     75  48  38 NE3       30.05F
BUTLER*        SUNNY     75  50  41 SW6       30.05F
PITTSBURGH INT PTSUNNY   77  40  26 W9        30.04F
PITTSBURGH     SUNNY     77  42  28 W8        30.03F
INDIANA*       SUNNY     77  52  41 NW9       30.08F
LATROBE        SUNNY     75  52  43 SW9       30.05F
WASHINGTON CO* SUNNY     75  52  43 S3        30.05F
$$

PAZ004>006-010>012-017>019-024>028-033>037-041-042-045-046-049>053-252100-
CENTRAL PENNSYLVANIA

CITY           SKY/WX    TMP DP  RH WIND       PRES   REMARKS
BRADFORD       SUNNY     74  47  38 VRB6      30.05F
DUBOIS         SUNNY     74  50  42 CALM      30.04F
CLEARFIELD     SUNNY     75  51  43 MISG      30.04F
JOHNSTOWN      SUNNY     73  48  41 NW9       30.08R
ALTOONA        SUNNY     76  51  41 CALM      30.05S
STATE COLLEGE  SUNNY     75  50  41 CALM      30.04F
WILLIAMSPORT   SUNNY     79  48  33 VRB3      29.99F
SELINSGROVE    SUNNY     79  50  36 CALM      30.01S
FT INDIANTOWN  SUNNY     81  51  35 VRB6      30.00F
CAPITAL CITY   SUNNY     79  43  27 CALM      30.01S
HARRISBURG     MOSUNNY   81  49  32 W6        30.00S
YORK           SUNNY     79  47  32 CALM      30.01S
$$

PAZ038>040-043-044-047-048-054-055-060>062-067>071-252100-
EASTERN PENNSYLVANIA

CITY           SKY/WX    TMP DP  RH WIND       PRES   REMARKS
SCRANTON       SUNNY     80  47  31 VRB3      30.00F
MOUNT POCONO   SUNNY     74  54  49 SE7       30.04F
ALLENTOWN      SUNNY     81  53  37 N6        29.99F
QUAKERTOWN*    CLEAR     79  55  44 SW3       30.01F
READING        SUNNY     80  54  40 W3        29.98F
LANCASTER      SUNNY     78  55  44 NE5       30.00F
COATESVILLE    CLEAR     77  54  44 CALM      30.02F
POTTSTOWN      MOSUNNY   80  54  40 MISG      30.00F
BLUE BELL      SUNNY     82  54  36 SW3       29.98F
DOYLESTOWN     SUNNY     79  53  40 CALM      29.99F
WILLOW GROVE   NOT AVBL
NORTH PHILA    MOSUNNY   83  51  33 CALM      29.99F
PHILADELPHIA   MOSUNNY   82  53  36 S6        29.98F
$$


USA.gov is the U.S. government's official web portal to all federal, state and local government web resources and services.